Weather in Modin

Russia / Saratov Oblast     51°10′24″N   49°23′57″E
temp.,
°C
wind,
m/s
gust,
m/s
humid.,
%
clouds,
%
prec.,
mm/h
press.,
hPa
HPBL,
m
17 october, sun
sun1701:00+8ese2256100 0.0 102114
04:00+8ese2262100 0.0 102112
07:00+8e3364100 0.0 102026
10:00+11sse2357100 0.2 1019145
13:00+15se2331100 0.0 1018500
16:00+15ese2328100 0.0 1017418
19:00+12e3333100 0.0 101724
22:00+13sse3332100 0.0 101657
18 october, mon
mon1801:00+13e1133100 0.0 101513
04:00+10nne464791 0.0 1015147
07:00+11ese3440100 0.0 1014107
10:00+13ssw3534100 0.0 1014244
13:00+14sw233397 0.0 1013402
16:00+15wsw1233100 0.1 1012153
19:00+13nw3339100 0.0 101255
22:00+12nnw334999 0.0 101287
19 october, tue
tue1901:00+10n3477100 0.6 1012135
04:00+9nw238686 0.6 1012129
07:00+7wnw228560 0.0 101229
10:00+10wnw336195 0.0 1012331
13:00+12w4451100 0.0 10111001
16:00+11w4547100 0.0 10101256
19:00+9wnw3456100 0.0 101173
22:00+8nw2360100 0.0 101185
20 october, wed
wed2001:00+7n3578100 0.0 1011221
04:00+7n1279100 0.1 1010183
07:00+6n4489100 2.0 1011884
10:00+4n7992100 2.7 1013759
13:00+8n6856100 0.1 10131344
16:00+8nnw7851100 0.1 10141455
19:00+5nnw7105982 0.1 1017746
22:00+3nnw610695 0.1 1019518
21 october, thu
thu2101:00+3nnw6106351 0.0 1020399
04:00+1nnw510765 0.0 1021311
07:000nw49785 0.0 1023248
10:00+3nnw68665 0.0 1024585
13:00+5nw56485 0.0 10231180
16:00+6wnw56435 0.0 10231167
19:00+3wnw34565 0.0 102458
22:00+2wsw34575 0.0 102370